Milton, FL

2:20 PM CDT on May 23, 2017 (GMT -0500)
Whiting Field Naval Air Station (South)

Weather History for KNDZ - January, 2014

Change the Weather History Date:

Friday, January 3, 2014

  Actual Average (KNSE) Record (KNSE)
Temperature  
Mean Temperature 36 °F -  
Max Temperature 45 °F 59 °F 75 °F (2000)
Min Temperature 27 °F 41 °F 19 °F (2008)
Degree Days  
Heating Degree Days 29    
Moisture  
Dew Point 17 °F    
Average Humidity 50    
Maximum Humidity 69    
Minimum Humidity 28    
Precipitation  
Precipitation 0.00 in - - ()
Sea Level Pressure  
Sea Level Pressure 30.32 in    
Wind  
Wind Speed 13 mph (NNE)    
Max Wind Speed 20 mph    
Max Gust Speed 25 mph    
Visibility 10 miles    
Events      
Averages and records for this station are not official NWS values.
T = Trace of Precipitation, MM = Missing Value Source: NWS Daily Summary

Daily Weather History Graph

Daily Weather History Graph

Search for Another Location

Airport or City:

Trip Planner

Search our weather history database for the weather conditions in past years. The results will help you decide how hot, cold, wet, or windy it might be!

Date:

Astronomy

Jan. 03, 2014 Rise Set
Actual Time 6:46 AM CST 4:59 PM CST
Civil Twilight 6:19 AM CST 5:25 PM CST
Nautical Twilight 5:49 AM CST 5:55 PM CST
Astronomical Twilight 5:20 AM CST 6:25 PM CST
Moon 8:23 AM CST (1/3) 7:54 PM CST (1/3)
Length of Visible Light 11h 06m
Length of Day
10h 13m
Waxing Crescent, 8% of the Moon is Illuminated
Jan 3
Waxing Crescent
Jan 7
First Quarter
Jan 15
Full
Jan 23
Last Quarter
Jan 30
New

Hourly Weather History & Observations

Time (CST) Temp. Windchill Dew Point Humidity Pressure Visibility Wind Dir Wind Speed Gust Speed Precip Events Conditions
12:56 AM 34.0 °F 23.8 °F 24.1 °F 67% 30.25 in 10.0 mi NNW 16.1 mph 24.2 mph N/A   Clear
1:56 AM 32.0 °F 22.1 °F 21.9 °F 66% 30.27 in 10.0 mi North 13.8 mph 24.2 mph N/A   Clear
2:56 AM 30.0 °F 19.5 °F 21.0 °F 69% 30.27 in 10.0 mi North 13.8 mph 23.0 mph N/A   Clear
3:56 AM 30.0 °F 19.1 °F 19.0 °F 64% 30.29 in 10.0 mi North 15.0 mph - N/A   Clear
4:56 AM 28.0 °F 18.6 °F 17.1 °F 63% 30.32 in 10.0 mi North 10.4 mph - N/A   Clear
5:56 AM 28.0 °F 16.1 °F 15.1 °F 58% 30.34 in 10.0 mi North 16.1 mph - N/A   Partly Cloudy
6:56 AM 27.0 °F 16.1 °F 15.1 °F 61% 30.38 in 10.0 mi North 12.7 mph - N/A   Scattered Clouds
7:56 AM 28.0 °F 15.3 °F 15.1 °F 58% 30.39 in 10.0 mi North 18.4 mph 25.3 mph N/A   Partly Cloudy
8:56 AM 30.9 °F 19.8 °F 15.1 °F 52% 30.40 in 10.0 mi North 16.1 mph - N/A   Partly Cloudy
9:56 AM 34.0 °F 23.8 °F 14.0 °F 44% 30.39 in 10.0 mi NNE 16.1 mph - N/A   Partly Cloudy
10:56 AM 37.9 °F 27.9 °F 14.0 °F 38% 30.35 in 10.0 mi NNE 19.6 mph 25.3 mph N/A   Scattered Clouds
11:56 AM 41.0 °F 33.5 °F 14.0 °F 33% 30.32 in 10.0 mi NNE 13.8 mph - N/A   Scattered Clouds
12:56 PM 45.0 °F 38.9 °F 14.0 °F 29% 30.30 in 10.0 mi NNE 12.7 mph 21.9 mph N/A   Mostly Cloudy
1:56 PM 44.1 °F 36.5 °F 12.9 °F 28% 30.29 in 10.0 mi NNE 17.3 mph 21.9 mph N/A   Mostly Cloudy
2:56 PM 45.0 °F 38.9 °F 15.1 °F 30% 30.28 in 10.0 mi NNE 12.7 mph - N/A   Mostly Cloudy
3:56 PM 44.1 °F 38.6 °F 15.1 °F 31% 30.28 in 10.0 mi NNE 10.4 mph - N/A   Scattered Clouds
4:56 PM 39.9 °F 34.5 °F 17.1 °F 40% 30.30 in 10.0 mi North 8.1 mph - N/A   Scattered Clouds
5:56 PM 37.0 °F 30.4 °F 17.1 °F 44% 30.32 in 10.0 mi North 9.2 mph - N/A   Scattered Clouds
6:56 PM 36.0 °F 29.0 °F 17.1 °F 46% 30.32 in 10.0 mi NNE 9.2 mph - N/A   Partly Cloudy
7:56 PM 34.0 °F 26.6 °F 17.1 °F 50% 30.32 in 10.0 mi NNE 9.2 mph - N/A   Partly Cloudy
8:56 PM 32.0 °F 28.7 °F 18.0 °F 56% 30.34 in 10.0 mi East 3.5 mph - N/A   Partly Cloudy
9:56 PM 30.9 °F 27.5 °F 18.0 °F 59% 30.34 in 10.0 mi East 3.5 mph - N/A   Clear
10:56 PM 30.0 °F 25.2 °F 18.0 °F 61% 30.32 in 10.0 mi ENE 4.6 mph - N/A   Clear
11:56 PM 28.9 °F 21.9 °F 18.0 °F 64% 30.30 in 10.0 mi ENE 6.9 mph - N/A   Clear